,,PA_Meas_PMT16A,,PR_Meas_QMR101_102,,RH_Meas_QMH101,,SR_Meas_QMS101,,TA_Meas_QMH101,,GenWind,,GenWind,
time,status,PA,status,PR,status,RH,status,SR,status,TA,status,DirAvg,status,SpdAvg,
2013-09-01, 00:00:04,VALID,917.121,VALID,0,VALID,96.0017,VALID,0,VALID,21.2226,VALID,6,VALID,0,
2013-09-01, 00:01:04,VALID,917.107,VALID,0,VALID,96.0245,VALID,0.107441,VALID,21.2616,VALID,6,VALID,0,
2013-09-01, 00:02:04,VALID,917.099,VALID,0,VALID,96.0093,VALID,0,VALID,21.2616,VALID,6,VALID,0,
2013-09-01, 00:03:04,VALID,917.074,VALID,0,VALID,96.0017,VALID,0,VALID,21.2811,VALID,6,VALID,0,
2013-09-01, 00:04:04,VALID,917.056,VALID,0,VALID,95.9712,VALID,0,VALID,21.2811,VALID,6,VALID,0,
2013-09-01, 00:05:04,VALID,917.016,VALID,0,VALID,95.9712,VALID,0.107441,VALID,21.3006,VALID,7,VALID,0,
2013-09-01, 00:06:04,VALID,916.993,VALID,0,VALID,95.9331,VALID,0,VALID,21.2811,VALID,7,VALID,0,
2013-09-01, 00:07:04,VALID,916.939,VALID,0,VALID,95.9254,VALID,0,VALID,21.2616,VALID,7,VALID,0,
2013-09-01, 00:08:04,VALID,916.909,VALID,0,VALID,95.9254,VALID,0,VALID,21.2421,VALID,7,VALID,0,
2013-09-01, 00:09:04,VALID,916.894,VALID,0,VALID,95.9254,VALID,0,VALID,21.2616,VALID,7,VALID,0,
2013-09-01, 00:10:04,VALID,916.862,VALID,0,VALID,95.9331,VALID,0,VALID,21.2811,VALID,7,VALID,0,
2013-09-01, 00:11:04,VALID,916.833,VALID,0,VALID,95.9331,VALID,0,VALID,21.2616,VALID,7,VALID,0,
2013-09-01, 00:12:04,VALID,916.847,VALID,0,VALID,95.9483,VALID,0,VALID,21.2811,VALID,7,VALID,0,
2013-09-01, 00:13:04,VALID,916.834,VALID,0,VALID,95.9712,VALID,0,VALID,21.2811,VALID,7,VALID,0,
2013-09-01, 00:14:04,VALID,916.847,VALID,0,VALID,95.9712,VALID,0,VALID,21.3022,VALID,7,VALID,0,
2013-09-01, 00:15:04,VALID,916.843,VALID,0,VALID,95.9712,VALID,0,VALID,21.3022,VALID,7,VALID,0,
2013-09-01, 00:16:04,VALID,916.791,VALID,0,VALID,95.9864,VALID,0,VALID,21.3217,VALID,7,VALID,0,
2013-09-01, 00:17:04,VALID,916.802,VALID,0,VALID,96.0093,VALID,0,VALID,21.3412,VALID,7,VALID,0,
2013-09-01, 00:18:04,VALID,916.802,VALID,0,VALID,95.9941,VALID,0,VALID,21.3217,VALID,7,VALID,0,
2013-09-01, 00:19:04,VALID,916.79,VALID,0,VALID,95.9864,VALID,0,VALID,21.3217,VALID,7,VALID,0,
2013-09-01, 00:20:04,VALID,916.788,VALID,0,VALID,96.0093,VALID,0,VALID,21.3412,VALID,7,VALID,0,
2013-09-01, 00:21:04,VALID,916.793,VALID,0,VALID,95.9788,VALID,0,VALID,21.3217,VALID,7,VALID,0,
2013-09-01, 00:22:04,VALID,916.795,VALID,0,VALID,95.9941,VALID,0,VALID,21.3608,VALID,7,VALID,0,
2013-09-01, 00:23:04,VALID,916.824,VALID,0,VALID,96.0093,VALID,0,VALID,21.3608,VALID,7,VALID,0,
2013-09-01, 00:24:04,VALID,916.794,VALID,0,VALID,96.0017,VALID,0,VALID,21.3591,VALID,7,VALID,0,
2013-09-01, 00:25:04,VALID,916.803,VALID,0,VALID,96.0093,VALID,0,VALID,21.3396,VALID,7,VALID,0,
2013-09-01, 00:26:04,VALID,916.812,VALID,0,VALID,95.9788,VALID,0,VALID,21.3201,VALID,7,VALID,0,
2013-09-01, 00:27:04,VALID,916.808,VALID,0,VALID,95.9712,VALID,0,VALID,21.3201,VALID,7,VALID,0,
2013-09-01, 00:28:04,VALID,916.837,VALID,0,VALID,95.9788,VALID,0,VALID,21.3217,VALID,7,VALID,0,
2013-09-01, 00:29:04,VALID,916.792,VALID,0,VALID,95.9864,VALID,0,VALID,21.3412,VALID,7,VALID,0,
2013-09-01, 00:30:04,VALID,916.794,VALID,0,VALID,95.9941,VALID,0,VALID,21.3608,VALID,7,VALID,0,
2013-09-01, 00:31:04,VALID,916.803,VALID,0,VALID,95.9941,VALID,0,VALID,21.3608,VALID,7,VALID,0,
2013-09-01, 00:32:04,VALID,916.822,VALID,0,VALID,96.0017,VALID,0,VALID,21.3998,VALID,7,VALID,0,
2013-09-01, 00:33:04,VALID,916.782,VALID,0,VALID,96.0093,VALID,0,VALID,21.3998,VALID,7,VALID,0,
2013-09-01, 00:34:04,VALID,916.772,VALID,0,VALID,96.0322,VALID,0,VALID,21.4193,VALID,7,VALID,0,
2013-09-01, 00:35:04,VALID,916.79,VALID,0,VALID,96.0245,VALID,0,VALID,21.3998,VALID,7,VALID,0,
2013-09-01, 00:36:04,VALID,916.796,VALID,0,VALID,95.9788,VALID,0,VALID,21.3998,VALID,7,VALID,0,
2013-09-01, 00:37:04,VALID,916.784,VALID,0,VALID,95.9712,VALID,0,VALID,21.3803,VALID,7,VALID,0,
2013-09-01, 00:38:04,VALID,916.767,VALID,0,VALID,95.9559,VALID,0,VALID,21.3396,VALID,7,VALID,0,
2013-09-01, 00:39:04,VALID,916.759,VALID,0,VALID,95.9407,VALID,0,VALID,21.3396,VALID,7,VALID,0,
2013-09-01, 00:40:04,VALID,916.747,VALID,0,VALID,95.9407,VALID,0,VALID,21.3608,VALID,7,VALID,0,
2013-09-01, 00:41:04,VALID,916.813,VALID,0,VALID,95.9407,VALID,0,VALID,21.3591,VALID,7,VALID,0,
2013-09-01, 00:42:04,VALID,916.817,VALID,0,VALID,95.9483,VALID,0,VALID,21.3608,VALID,7,VALID,0,
2013-09-01, 00:43:04,VALID,916.826,VALID,0,VALID,95.9407,VALID,0,VALID,21.3396,VALID,7,VALID,0,
2013-09-01, 00:44:04,VALID,916.854,VALID,0,VALID,95.9254,VALID,0.107441,VALID,21.3396,VALID,7,VALID,0,
2013-09-01, 00:45:04,VALID,916.823,VALID,0,VALID,95.9331,VALID,0,VALID,21.3591,VALID,7,VALID,0,
2013-09-01, 00:46:04,VALID,916.81,VALID,0,VALID,95.9102,VALID,0,VALID,21.3608,VALID,7,VALID,0,
2013-09-01, 00:47:04,VALID,916.802,VALID,0,VALID,95.8797,VALID,0,VALID,21.3201,VALID,7,VALID,0,
2013-09-01, 00:48:04,VALID,916.811,VALID,0,VALID,95.8568,VALID,0,VALID,21.3217,VALID,7,VALID,0,
2013-09-01, 00:49:04,VALID,916.785,VALID,0,VALID,95.8645,VALID,0,VALID,21.3201,VALID,7,VALID,0,
2013-09-01, 00:50:04,VALID,916.803,VALID,0,VALID,95.8645,VALID,0,VALID,21.3217,VALID,7,VALID,0,
2013-09-01, 00:51:04,VALID,916.787,VALID,0,VALID,95.8645,VALID,0,VALID,21.3217,VALID,6,VALID,0,
2013-09-01, 00:52:04,VALID,916.772,VALID,0,VALID,95.8645,VALID,0,VALID,21.3022,VALID,141,VALID,0,
2013-09-01, 00:53:04,VALID,916.783,VALID,0,VALID,95.8721,VALID,0,VALID,21.2811,VALID,180,VALID,0,
2013-09-01, 00:54:04,VALID,916.784,VALID,0,VALID,95.8568,VALID,0,VALID,21.2827,VALID,180,VALID,0,
2013-09-01, 00:55:04,VALID,916.758,VALID,0,VALID,95.8492,VALID,0,VALID,21.2031,VALID,176,VALID,0,
2013-09-01, 00:56:04,VALID,916.785,VALID,0,VALID,95.8492,VALID,0,VALID,21.1836,VALID,176,VALID,0,
2013-09-01, 00:57:04,VALID,916.745,VALID,0,VALID,95.8645,VALID,0,VALID,21.2031,VALID,179,VALID,0,
2013-09-01, 00:58:04,VALID,916.707,VALID,0,VALID,95.8645,VALID,0,VALID,21.2031,VALID,198,VALID,0,
2013-09-01, 00:59:04,VALID,916.662,VALID,0,VALID,95.8645,VALID,0,VALID,21.164,VALID,207,VALID,0,
2013-09-01, 01:00:04,VALID,916.671,VALID,0,VALID,95.8797,VALID,0,VALID,21.1445,VALID,207,VALID,0,
2013-09-01, 01:01:04,VALID,916.656,VALID,0,VALID,95.8797,VALID,0,VALID,21.1657,VALID,188,VALID,0,
2013-09-01, 01:02:04,VALID,916.669,VALID,0,VALID,95.9026,VALID,0,VALID,21.125,VALID,189,VALID,0,
2013-09-01, 01:03:04,VALID,916.649,VALID,0,VALID,95.9026,VALID,0,VALID,21.1461,VALID,201,VALID,0,
2013-09-01, 01:04:04,VALID,916.671,VALID,0,VALID,95.895,VALID,0,VALID,21.1266,VALID,201,VALID,0,
2013-09-01, 01:05:04,VALID,916.644,VALID,0,VALID,95.9178,VALID,0,VALID,21.0665,VALID,201,VALID,0,
2013-09-01, 01:06:04,VALID,916.668,VALID,0,VALID,95.9026,VALID,0,VALID,21.0681,VALID,201,VALID,0,
2013-09-01, 01:07:04,VALID,916.661,VALID,0,VALID,95.9483,VALID,0,VALID,21.0665,VALID,201,VALID,0,
2013-09-01, 01:08:04,VALID,916.679,VALID,0,VALID,95.9483,VALID,0,VALID,21.1071,VALID,201,VALID,0,
2013-09-01, 01:09:04,VALID,916.697,VALID,0,VALID,95.9636,VALID,0,VALID,21.1071,VALID,200,VALID,0,
2013-09-01, 01:10:04,VALID,916.694,VALID,0,VALID,95.9331,VALID,0,VALID,21.0486,VALID,200,VALID,0,
2013-09-01, 01:11:04,VALID,916.652,VALID,0,VALID,95.9559,VALID,0,VALID,21.0275,VALID,201,VALID,0,
2013-09-01, 01:12:04,VALID,916.695,VALID,0,VALID,95.9559,VALID,0,VALID,21.0486,VALID,202,VALID,0,
2013-09-01, 01:13:04,VALID,916.672,VALID,0,VALID,95.9712,VALID,0,VALID,21.0486,VALID,202,VALID,0,
2013-09-01, 01:14:04,VALID,916.659,VALID,0,VALID,96.0017,VALID,0,VALID,21.0275,VALID,202,VALID,0,
2013-09-01, 01:15:04,VALID,916.656,VALID,0,VALID,95.9788,VALID,0,VALID,21.0275,VALID,202,VALID,0,
2013-09-01, 01:16:04,VALID,916.653,VALID,0,VALID,96.0017,VALID,0,VALID,21.0275,VALID,202,VALID,0,
2013-09-01, 01:17:04,VALID,916.65,VALID,0,VALID,96.0245,VALID,0,VALID,21.0275,VALID,202,VALID,0,
2013-09-01, 01:18:04,VALID,916.637,VALID,0,VALID,96.0017,VALID,0,VALID,21.0291,VALID,202,VALID,0,
2013-09-01, 01:19:04,VALID,916.653,VALID,0,VALID,95.9941,VALID,0,VALID,20.9885,VALID,201,VALID,0,
2013-09-01, 01:20:04,VALID,916.628,VALID,0,VALID,96.0322,VALID,0,VALID,21.0096,VALID,201,VALID,0,
2013-09-01, 01:21:04,VALID,916.597,VALID,0,VALID,96.0322,VALID,0,VALID,20.9885,VALID,201,VALID,0,
2013-09-01, 01:22:04,VALID,916.602,VALID,0,VALID,96.0398,VALID,0.107441,VALID,20.9901,VALID,201,VALID,0,
2013-09-01, 01:23:04,VALID,916.575,VALID,0,VALID,96.0779,VALID,0,VALID,20.9885,VALID,201,VALID,0,
2013-09-01, 01:24:04,VALID,916.564,VALID,0,VALID,96.0932,VALID,0.107441,VALID,21.0275,VALID,201,VALID,0,
2013-09-01, 01:25:04,VALID,916.499,VALID,0,VALID,96.1236,VALID,0,VALID,21.0275,VALID,201,VALID,0,
2013-09-01, 01:26:04,VALID,916.488,VALID,0,VALID,96.1313,VALID,0,VALID,21.008,VALID,201,VALID,0,
2013-09-01, 01:27:04,VALID,916.498,VALID,0,VALID,96.1313,VALID,0,VALID,21.008,VALID,201,VALID,0,
2013-09-01, 01:28:04,VALID,916.468,VALID,0,VALID,96.1541,VALID,0.107441,VALID,21.047,VALID,201,VALID,0,
2013-09-01, 01:29:04,VALID,916.477,VALID,0,VALID,96.1694,VALID,0.107441,VALID,21.047,VALID,201,VALID,0,
2013-09-01, 01:30:04,VALID,916.454,VALID,0,VALID,96.1541,VALID,0.107441,VALID,21.047,VALID,201,VALID,0,
2013-09-01, 01:31:04,VALID,916.427,VALID,0,VALID,96.177,VALID,0.107441,VALID,21.086,VALID,201,VALID,0,
2013-09-01, 01:32:04,VALID,916.416,VALID,0,VALID,96.1923,VALID,0.107441,VALID,21.086,VALID,201,VALID,0,
2013-09-01, 01:33:04,VALID,916.415,VALID,0,VALID,96.1999,VALID,0,VALID,21.1055,VALID,201,VALID,0,
2013-09-01, 01:34:04,VALID,916.378,VALID,0,VALID,96.1999,VALID,0,VALID,21.1055,VALID,201,VALID,0,
2013-09-01, 01:35:04,VALID,916.37,VALID,0,VALID,96.1846,VALID,0.107441,VALID,21.125,VALID,201,VALID,0,
2013-09-01, 01:36:04,VALID,916.386,VALID,0,VALID,96.177,VALID,0,VALID,21.125,VALID,201,VALID,0,
2013-09-01, 01:37:04,VALID,916.361,VALID,0,VALID,96.2075,VALID,0,VALID,21.1445,VALID,201,VALID,0,
2013-09-01, 01:38:04,VALID,916.358,VALID,0,VALID,96.1999,VALID,0.107441,VALID,21.2031,VALID,201,VALID,0,
2013-09-01, 01:39:04,VALID,916.33,VALID,0,VALID,96.2151,VALID,0,VALID,21.2226,VALID,201,VALID,0,
2013-09-01, 01:40:04,VALID,916.335,VALID,0,VALID,96.2075,VALID,0,VALID,21.2031,VALID,201,VALID,0,
2013-09-01, 01:41:04,VALID,916.314,VALID,0,VALID,96.1923,VALID,0,VALID,21.2242,VALID,201,VALID,0,
2013-09-01, 01:42:04,VALID,916.314,VALID,0,VALID,96.1923,VALID,0,VALID,21.2047,VALID,201,VALID,0,
2013-09-01, 01:43:04,VALID,916.274,VALID,0,VALID,96.1389,VALID,0,VALID,21.1445,VALID,201,VALID,0,
2013-09-01, 01:44:04,VALID,916.227,VALID,0,VALID,96.1236,VALID,0,VALID,21.1445,VALID,201,VALID,0,
2013-09-01, 01:45:04,VALID,916.203,VALID,0,VALID,96.0855,VALID,0,VALID,21.125,VALID,201,VALID,0,
2013-09-01, 01:46:04,VALID,916.131,VALID,0,VALID,96.055,VALID,0,VALID,21.125,VALID,201,VALID,0,
2013-09-01, 01:47:04,VALID,916.13,VALID,0,VALID,96.0474,VALID,0,VALID,21.086,VALID,207,VALID,0,
2013-09-01, 01:48:04,VALID,916.113,VALID,0,VALID,96.0245,VALID,0.107441,VALID,21.0665,VALID,353,VALID,0,
2013-09-01, 01:49:04,VALID,916.097,VALID,0,VALID,96.0474,VALID,0,VALID,21.047,VALID,360,VALID,0,
2013-09-01, 01:50:04,VALID,916.058,VALID,0,VALID,96.0474,VALID,0.107441,VALID,21.0275,VALID,360,VALID,0,
2013-09-01, 01:51:04,VALID,916.037,VALID,0,VALID,96.0627,VALID,0,VALID,21.0275,VALID,360,VALID,0,
2013-09-01, 01:52:04,VALID,916.05,VALID,0,VALID,96.0932,VALID,0,VALID,21.0275,VALID,360,VALID,0,
2013-09-01, 01:53:04,VALID,915.982,VALID,0,VALID,96.0932,VALID,0,VALID,21.0486,VALID,360,VALID,0,
2013-09-01, 01:54:04,VALID,915.941,VALID,0,VALID,96.1008,VALID,0,VALID,21.0275,VALID,360,VALID,0,
2013-09-01, 01:55:04,VALID,915.933,VALID,0,VALID,96.0779,VALID,0,VALID,21.0096,VALID,360,VALID,0,
2013-09-01, 01:56:04,VALID,915.899,VALID,0,VALID,96.1008,VALID,0,VALID,20.9885,VALID,360,VALID,0,
2013-09-01, 01:57:04,VALID,915.833,VALID,0,VALID,96.1008,VALID,0,VALID,21.0096,VALID,360,VALID,0,
2013-09-01, 01:58:04,VALID,915.815,VALID,0,VALID,96.1008,VALID,0,VALID,20.9901,VALID,360,VALID,0,
2013-09-01, 01:59:04,VALID,915.79,VALID,0,VALID,96.0932,VALID,0,VALID,20.9706,VALID,360,VALID,0,
2013-09-01, 02:00:04,VALID,915.799,VALID,0,VALID,96.1008,VALID,0,VALID,20.9511,VALID,360,VALID,0,
2013-09-01, 02:01:04,VALID,915.747,VALID,0,VALID,96.1084,VALID,0,VALID,20.912,VALID,360,VALID,0,
2013-09-01, 02:02:04,VALID,915.751,VALID,0,VALID,96.1084,VALID,0,VALID,20.873,VALID,360,VALID,0,
2013-09-01, 02:03:04,VALID,915.742,VALID,0,VALID,96.1084,VALID,0,VALID,20.8535,VALID,360,VALID,0,
2013-09-01, 02:04:04,VALID,915.73,VALID,0,VALID,96.1236,VALID,0,VALID,20.8129,VALID,360,VALID,0,
2013-09-01, 02:05:04,VALID,915.726,VALID,0,VALID,96.1236,VALID,0,VALID,20.7739,VALID,360,VALID,0,
2013-09-01, 02:06:04,VALID,915.695,VALID,0,VALID,96.1313,VALID,0,VALID,20.7544,VALID,360,VALID,0,
2013-09-01, 02:07:04,VALID,915.693,VALID,0,VALID,96.1541,VALID,0,VALID,20.7544,VALID,360,VALID,0,
2013-09-01, 02:08:04,VALID,915.643,VALID,0,VALID,96.1541,VALID,0,VALID,20.7544,VALID,360,VALID,0,
2013-09-01, 02:09:04,VALID,915.693,VALID,0,VALID,96.1999,VALID,0,VALID,20.756,VALID,360,VALID,0,
2013-09-01, 02:10:04,VALID,915.686,VALID,0,VALID,96.2228,VALID,0,VALID,20.795,VALID,360,VALID,0,
2013-09-01, 02:11:04,VALID,915.681,VALID,0,VALID,96.238,VALID,0,VALID,20.8145,VALID,360,VALID,0,
2013-09-01, 02:12:04,VALID,915.648,VALID,0,VALID,96.2609,VALID,0,VALID,20.7934,VALID,360,VALID,0,
2013-09-01, 02:13:04,VALID,915.686,VALID,0,VALID,96.2533,VALID,0,VALID,20.795,VALID,360,VALID,0,
2013-09-01, 02:14:04,VALID,915.686,VALID,0,VALID,96.2685,VALID,0,VALID,20.7739,VALID,360,VALID,0,
2013-09-01, 02:15:04,VALID,915.651,VALID,0,VALID,96.2761,VALID,0,VALID,20.756,VALID,360,VALID,0,
2013-09-01, 02:16:04,VALID,915.632,VALID,0,VALID,96.2761,VALID,0,VALID,20.7365,VALID,360,VALID,0,
2013-09-01, 02:17:04,VALID,915.644,VALID,0,VALID,96.2685,VALID,0,VALID,20.717,VALID,360,VALID,0,
2013-09-01, 02:18:04,VALID,915.685,VALID,0,VALID,96.2533,VALID,0,VALID,20.6959,VALID,360,VALID,0,
2013-09-01, 02:19:04,VALID,915.675,VALID,0,VALID,96.2533,VALID,0,VALID,20.6975,VALID,360,VALID,0,
2013-09-01, 02:20:04,VALID,915.681,VALID,0,VALID,96.2304,VALID,0,VALID,20.6764,VALID,360,VALID,0,
2013-09-01, 02:21:04,VALID,915.668,VALID,0,VALID,96.2609,VALID,0,VALID,20.6959,VALID,347,VALID,0,
2013-09-01, 02:22:04,VALID,915.676,VALID,0,VALID,96.3066,VALID,0,VALID,20.6959,VALID,347,VALID,0,
2013-09-01, 02:23:04,VALID,915.664,VALID,0,VALID,96.2685,VALID,0,VALID,20.6959,VALID,347,VALID,0,
2013-09-01, 02:24:04,VALID,915.654,VALID,0,VALID,96.2914,VALID,0.107441,VALID,20.6959,VALID,347,VALID,0,
2013-09-01, 02:25:04,VALID,915.634,VALID,0,VALID,96.2914,VALID,0,VALID,20.6959,VALID,347,VALID,0,
2013-09-01, 02:26:04,VALID,915.603,VALID,0,VALID,96.2761,VALID,0,VALID,20.6959,VALID,347,VALID,0,
2013-09-01, 02:27:04,VALID,915.63,VALID,0,VALID,96.2914,VALID,0,VALID,20.6959,VALID,347,VALID,0,
2013-09-01, 02:28:04,VALID,915.635,VALID,0,VALID,96.2837,VALID,0,VALID,20.6764,VALID,347,VALID,0,
2013-09-01, 02:29:04,VALID,915.63,VALID,0,VALID,96.2685,VALID,0,VALID,20.6374,VALID,346,VALID,0,
2013-09-01, 02:30:04,VALID,915.633,VALID,0,VALID,96.2456,VALID,0,VALID,20.6179,VALID,276,VALID,0,
2013-09-01, 02:31:04,VALID,915.635,VALID,0,VALID,96.2533,VALID,0,VALID,20.6374,VALID,172,VALID,0,
2013-09-01, 02:32:04,VALID,915.611,VALID,0,VALID,96.2456,VALID,0,VALID,20.6194,VALID,172,VALID,0,
2013-09-01, 02:33:04,VALID,915.624,VALID,0,VALID,96.238,VALID,0,VALID,20.5789,VALID,172,VALID,0,
2013-09-01, 02:34:04,VALID,915.647,VALID,0,VALID,96.2075,VALID,0,VALID,20.5789,VALID,172,VALID,0,
2013-09-01, 02:35:04,VALID,915.596,VALID,0,VALID,96.2075,VALID,0.107441,VALID,20.6194,VALID,172,VALID,0,
2013-09-01, 02:36:04,VALID,915.645,VALID,0,VALID,96.2304,VALID,0,VALID,20.6194,VALID,172,VALID,0,
2013-09-01, 02:37:04,VALID,915.664,VALID,0,VALID,96.2456,VALID,0,VALID,20.6179,VALID,172,VALID,0,
2013-09-01, 02:38:04,VALID,915.666,VALID,0,VALID,96.2304,VALID,0.107441,VALID,20.639,VALID,172,VALID,0,
2013-09-01, 02:39:04,VALID,915.695,VALID,0,VALID,96.2456,VALID,0,VALID,20.6194,VALID,172,VALID,0,
2013-09-01, 02:40:04,VALID,915.712,VALID,0,VALID,96.2228,VALID,0,VALID,20.5999,VALID,172,VALID,0,
2013-09-01, 02:41:04,VALID,915.686,VALID,0,VALID,96.177,VALID,0,VALID,20.5414,VALID,172,VALID,0,
2013-09-01, 02:42:04,VALID,915.676,VALID,0,VALID,96.1618,VALID,0,VALID,20.5024,VALID,172,VALID,0,
2013-09-01, 02:43:04,VALID,915.662,VALID,0,VALID,96.1618,VALID,0,VALID,20.4618,VALID,172,VALID,0,
2013-09-01, 02:44:04,VALID,915.658,VALID,0,VALID,96.1846,VALID,0,VALID,20.5024,VALID,172,VALID,0,
2013-09-01, 02:45:04,VALID,915.656,VALID,0,VALID,96.2075,VALID,0,VALID,20.5009,VALID,172,VALID,0,
2013-09-01, 02:46:04,VALID,915.655,VALID,0,VALID,96.238,VALID,0,VALID,20.5009,VALID,172,VALID,0,
2013-09-01, 02:47:04,VALID,915.664,VALID,0,VALID,96.238,VALID,0,VALID,20.5204,VALID,172,VALID,0,
2013-09-01, 02:48:04,VALID,915.629,VALID,0,VALID,96.238,VALID,0,VALID,20.5024,VALID,172,VALID,0,
2013-09-01, 02:49:04,VALID,915.686,VALID,0,VALID,96.238,VALID,0,VALID,20.4829,VALID,172,VALID,0,
2013-09-01, 02:50:04,VALID,915.64,VALID,0,VALID,96.2304,VALID,0,VALID,20.4244,VALID,172,VALID,0,
2013-09-01, 02:51:04,VALID,915.631,VALID,0,VALID,96.2304,VALID,0,VALID,20.4244,VALID,172,VALID,0,
2013-09-01, 02:52:04,VALID,915.637,VALID,0,VALID,96.2609,VALID,0,VALID,20.3838,VALID,172,VALID,0,
2013-09-01, 02:53:04,VALID,915.65,VALID,0,VALID,96.2685,VALID,0,VALID,20.3643,VALID,172,VALID,0,
2013-09-01, 02:54:04,VALID,915.641,VALID,0,VALID,96.2761,VALID,0,VALID,20.3643,VALID,172,VALID,0,
2013-09-01, 02:55:04,VALID,915.629,VALID,0,VALID,96.3066,VALID,0,VALID,20.3854,VALID,172,VALID,0,
2013-09-01, 02:56:04,VALID,915.613,VALID,0,VALID,96.3219,VALID,0,VALID,20.3643,VALID,172,VALID,0,
2013-09-01, 02:57:04,VALID,915.625,VALID,0,VALID,96.3219,VALID,0,VALID,20.3854,VALID,172,VALID,0,
2013-09-01, 02:58:04,VALID,915.594,VALID,0,VALID,96.3219,VALID,0,VALID,20.3854,VALID,172,VALID,0,
2013-09-01, 02:59:04,VALID,915.571,VALID,0,VALID,96.36,VALID,0,VALID,20.3643,VALID,172,VALID,0,
2013-09-01, 03:00:04,VALID,915.589,VALID,0,VALID,96.3981,VALID,0,VALID,20.3838,VALID,172,VALID,0,
2013-09-01, 03:01:04,VALID,915.599,VALID,0,VALID,96.3829,VALID,0,VALID,20.4244,VALID,172,VALID,0,
2013-09-01, 03:02:04,VALID,915.57,VALID,0,VALID,96.4057,VALID,0,VALID,20.4439,VALID,172,VALID,0,
2013-09-01, 03:03:04,VALID,915.573,VALID,0,VALID,96.421,VALID,0,VALID,20.4439,VALID,172,VALID,0,
2013-09-01, 03:04:04,VALID,915.576,VALID,0,VALID,96.4362,VALID,0,VALID,20.4439,VALID,172,VALID,0,
2013-09-01, 03:05:04,VALID,915.529,VALID,0,VALID,96.4286,VALID,0,VALID,20.4228,VALID,172,VALID,0,
2013-09-01, 03:06:04,VALID,915.497,VALID,0,VALID,96.4133,VALID,0,VALID,20.4439,VALID,172,VALID,0,
2013-09-01, 03:07:04,VALID,915.507,VALID,0,VALID,96.421,VALID,0,VALID,20.4439,VALID,172,VALID,0,
2013-09-01, 03:08:04,VALID,915.496,VALID,0,VALID,96.421,VALID,0,VALID,20.4634,VALID,206,VALID,0,
2013-09-01, 03:09:04,VALID,915.486,VALID,0,VALID,96.4438,VALID,0,VALID,20.4423,VALID,206,VALID,0,
2013-09-01, 03:10:04,VALID,915.485,VALID,0,VALID,96.4515,VALID,0.107441,VALID,20.4634,VALID,206,VALID,0,
2013-09-01, 03:11:04,VALID,915.523,VALID,0,VALID,96.4515,VALID,0,VALID,20.4423,VALID,206,VALID,0,
2013-09-01, 03:12:04,VALID,915.529,VALID,0,VALID,96.4591,VALID,0,VALID,20.4423,VALID,206,VALID,0,
2013-09-01, 03:13:04,VALID,915.547,VALID,0,VALID,96.4743,VALID,0,VALID,20.4634,VALID,206,VALID,0,
2013-09-01, 03:14:04,VALID,915.518,VALID,0,VALID,96.4667,VALID,0,VALID,20.4634,VALID,206,VALID,0,
2013-09-01, 03:15:04,VALID,915.525,VALID,0,VALID,96.4896,VALID,0,VALID,20.4634,VALID,206,VALID,0,
2013-09-01, 03:16:04,VALID,915.486,VALID,0,VALID,96.4896,VALID,0,VALID,20.4634,VALID,206,VALID,0,
2013-09-01, 03:17:04,VALID,915.514,VALID,0,VALID,96.4896,VALID,0,VALID,20.4634,VALID,206,VALID,0,
2013-09-01, 03:18:04,VALID,915.533,VALID,0,VALID,96.4896,VALID,0,VALID,20.4829,VALID,206,VALID,0,
2013-09-01, 03:19:04,VALID,915.502,VALID,0,VALID,96.4896,VALID,0,VALID,20.5024,VALID,206,VALID,0,
2013-09-01, 03:20:04,VALID,915.509,VALID,0,VALID,96.5048,VALID,0,VALID,20.5219,VALID,206,VALID,0,
2013-09-01, 03:21:04,VALID,915.513,VALID,0,VALID,96.4743,VALID,0,VALID,20.5204,VALID,206,VALID,0,
2013-09-01, 03:22:04,VALID,915.534,VALID,0,VALID,96.4896,VALID,0,VALID,20.5024,VALID,206,VALID,0,
2013-09-01, 03:23:04,VALID,915.515,VALID,0,VALID,96.4743,VALID,0,VALID,20.4829,VALID,206,VALID,0,
2013-09-01, 03:24:04,VALID,915.474,VALID,0,VALID,96.4591,VALID,0,VALID,20.4634,VALID,206,VALID,0,
2013-09-01, 03:25:04,VALID,915.513,VALID,0,VALID,96.4896,VALID,0,VALID,20.4228,VALID,206,VALID,0,
2013-09-01, 03:26:04,VALID,915.516,VALID,0,VALID,96.4591,VALID,0,VALID,20.4439,VALID,206,VALID,0,
2013-09-01, 03:27:04,VALID,915.494,VALID,0,VALID,96.4667,VALID,0,VALID,20.4244,VALID,206,VALID,0,
2013-09-01, 03:28:04,VALID,915.524,VALID,0,VALID,96.4438,VALID,0,VALID,20.4049,VALID,206,VALID,0,
2013-09-01, 03:29:04,VALID,915.507,VALID,0,VALID,96.4591,VALID,0,VALID,20.4049,VALID,206,VALID,0,
2013-09-01, 03:30:04,VALID,915.515,VALID,0,VALID,96.4362,VALID,0,VALID,20.3838,VALID,206,VALID,0,
2013-09-01, 03:31:04,VALID,915.494,VALID,0,VALID,96.421,VALID,0,VALID,20.3854,VALID,206,VALID,0,
2013-09-01, 03:32:04,VALID,915.54,VALID,0,VALID,96.4057,VALID,0,VALID,20.3269,VALID,170,VALID,0,
2013-09-01, 03:33:04,VALID,915.529,VALID,0,VALID,96.3752,VALID,0,VALID,20.3058,VALID,170,VALID,0,
2013-09-01, 03:34:04,VALID,915.521,VALID,0,VALID,96.3752,VALID,0.107441,VALID,20.2668,VALID,170,VALID,0,
2013-09-01, 03:35:04,VALID,915.505,VALID,0,VALID,96.3905,VALID,0,VALID,20.2668,VALID,170,VALID,0,
2013-09-01, 03:36:04,VALID,915.506,VALID,0,VALID,96.3905,VALID,0,VALID,20.2863,VALID,170,VALID,0,
2013-09-01, 03:37:04,VALID,915.5,VALID,0,VALID,96.4057,VALID,0,VALID,20.2879,VALID,170,VALID,0,
2013-09-01, 03:38:04,VALID,915.472,VALID,0,VALID,96.421,VALID,0.107441,VALID,20.2684,VALID,164,VALID,0,
2013-09-01, 03:39:04,VALID,915.486,VALID,0,VALID,96.3981,VALID,0,VALID,20.2489,VALID,156,VALID,0,
2013-09-01, 03:40:04,VALID,915.455,VALID,0,VALID,96.3829,VALID,0,VALID,20.2278,VALID,156,VALID,0,
2013-09-01, 03:41:04,VALID,915.459,VALID,0,VALID,96.3981,VALID,0,VALID,20.2293,VALID,156,VALID,0,
2013-09-01, 03:42:04,VALID,915.476,VALID,0,VALID,96.3829,VALID,0,VALID,20.2293,VALID,156,VALID,0,
2013-09-01, 03:43:04,VALID,915.463,VALID,0,VALID,96.36,VALID,0,VALID,20.2098,VALID,156,VALID,0,
2013-09-01, 03:44:04,VALID,915.444,VALID,0,VALID,96.3524,VALID,0,VALID,20.2098,VALID,156,VALID,0,
2013-09-01, 03:45:04,VALID,915.428,VALID,0,VALID,96.3447,VALID,0,VALID,20.1903,VALID,149,VALID,0,
2013-09-01, 03:46:04,VALID,915.408,VALID,0,VALID,96.3447,VALID,0,VALID,20.1903,VALID,136,VALID,0,
2013-09-01, 03:47:04,VALID,915.399,VALID,0,VALID,96.3219,VALID,0,VALID,20.1903,VALID,136,VALID,0,
2013-09-01, 03:48:04,VALID,915.409,VALID,0,VALID,96.3295,VALID,0,VALID,20.1693,VALID,136,VALID,0,
2013-09-01, 03:49:04,VALID,915.392,VALID,0,VALID,96.3447,VALID,0.107441,VALID,20.2083,VALID,139,VALID,0,
2013-09-01, 03:50:04,VALID,915.363,VALID,0,VALID,96.3447,VALID,0,VALID,20.2293,VALID,140,VALID,0,
2013-09-01, 03:51:04,VALID,915.369,VALID,0,VALID,96.3524,VALID,0,VALID,20.2293,VALID,139,VALID,0,
2013-09-01, 03:52:04,VALID,915.354,VALID,0,VALID,96.3676,VALID,0,VALID,20.2489,VALID,132,VALID,0,
2013-09-01, 03:53:04,VALID,915.305,VALID,0,VALID,96.3524,VALID,0.107441,VALID,20.2684,VALID,132,VALID,0,
2013-09-01, 03:54:04,VALID,915.295,VALID,0,VALID,96.3447,VALID,0.107441,VALID,20.2473,VALID,132,VALID,0,
2013-09-01, 03:55:04,VALID,915.269,VALID,0,VALID,96.3676,VALID,0,VALID,20.2684,VALID,150,VALID,0,
2013-09-01, 03:56:04,VALID,915.272,VALID,0,VALID,96.3676,VALID,0,VALID,20.2668,VALID,177,VALID,0,
2013-09-01, 03:57:04,VALID,915.246,VALID,0,VALID,96.3752,VALID,0,VALID,20.2879,VALID,178,VALID,0,
2013-09-01, 03:58:04,VALID,915.26,VALID,0,VALID,96.3524,VALID,0,VALID,20.2879,VALID,176,VALID,0,
2013-09-01, 03:59:04,VALID,915.284,VALID,0,VALID,96.3371,VALID,0,VALID,20.2879,VALID,174,VALID,0,